Regional Weather Roundup
Issued by NWS

Home | Current Version | Previous Version | Graphics & Text | Print | Product List | Glossary On
Versions: 1 2 3 4 5 6 7 8 9 10 11 12 13 14 15 16 17 18 19 20 21 22 23 24 25 26 27 28 29 30 31 32 33 34 35 36 37 38 39 40 41 42 43 44 45 46 47 48 49 50
675
ASUS45 KSLC 200310
RWRUT

UTAH REGIONAL WEATHER ROUNDUP
NATIONAL WEATHER SERVICE SALT LAKE CITY UT
800 PM MST THU JAN 19 2017

UTZ001>011-023>025-200400-

NORTHERN UTAH

CITY           SKY/WX    TMP DP  RH WIND       PRES   REMARKS
BRIGHAM CITY     N/A     30  28  92 CALM      29.74F
HILL AFB       SNOW      30  30 100 N3        29.71F VSB 1/4
LOGAN          FOG       27  27 100 CALM      29.72F VSB 1
OGDEN          LGT SNOW  29  29 100 CALM      29.71F VSB 3/4
SALT LAKE CITY CLOUDY    30  28  92 W5        29.72F FOG     WCI  25
TOOELE VALLEY  CLOUDY    28  28 100 CALM      29.73F FOG
WENDOVER       CLOUDY    23  21  93 NW3       29.74F
HEBER CITY     CLOUDY    32  30  93 CALM      29.67S FOG
WEST JORDAN    CLOUDY    32  32 100 N3        29.72F

$$

UTZ011>015-024>027-200400-

CENTRAL/NORTHEAST UTAH

CITY           SKY/WX    TMP DP  RH WIND       PRES   REMARKS
PROVO AIRPORT  CLOUDY    32  30  92 CALM      29.72F FOG
MOAB/CANYONLAN LGT SNOW  32  31  96 NW8       29.70F FOG     WCI  25
DELTA          CLOUDY    32  32 100 CALM      29.71S
PRICE          LGT SNOW  28  27  96 CALM      29.69F FOG
RICHFIELD      CLOUDY    34  34 100 CALM      29.70F
ROOSEVELT      LGT SNOW  19  14  79 CALM      29.78F
VERNAL         LGT SNOW  18  14  84 CALM      29.75F FOG

$$

UTZ013>016-019>022-027-200400-

SOUTHERN UTAH

CITY           SKY/WX    TMP DP  RH WIND       PRES   REMARKS
BRYCE CANYON   SNOW      28  26  92 SE12      29.69F VSB 1/4 WCI  18
CEDAR CITY     CLOUDY    31  29  92 SW5       29.70F WCI  26
MILFORD        CLOUDY    33  32  96 S12       29.69S WCI  24
ST GEORGE      CLOUDY    41  36  81 CALM      29.79F
HANKSVILLE     CLOUDY    32  32 100 MISG      29.74F
KANAB          CLOUDY    34  34 100 SW3       29.79F
BLANDING       CLOUDY    31  31 100 E3        29.81F VSB 3/4

$$

REGIONAL REPORTS     COLORADO/ARIZONA

CITY           SKY/WX    TMP DP  RH WIND       PRES   REMARKS
CRAIG, CO      LGT SNOW  28  24  85 CALM      29.70F FOG
GRAND JUNCTION LGT SNOW  31  31 100 E6        29.72F FOG     WCI  25
RIFLE, CO      LGT SNOW  31  31 100 CALM      29.72F FOG
MONTROSE, CO   CLOUDY    31  31 100 NW5       29.74F WCI  26
CORTEZ, CO     LGT SNOW  32  32 100 CALM      29.76F FOG
COLORADO CITY  LGT SNOW  34  34 100 NE3       29.78F VSB 1
PAGE, AZ       CLOUDY    39  34  82 NW5       29.73F
GRAND CANYON   CLOUDY    27  27 100 SW10      29.79F WCI  17
KINGMAN, AZ    LGT RAIN  42  37  82 SE8       29.81S
FLAGSTAFF, AZ  SNOW      28  27  96 SW16G24   29.79F VSB 1/2 WCI  16

$$

REGIONAL REPORTS    NEVADA/IDAHO/WYOMING

CITY           SKY/WX    TMP DP  RH WIND       PRES   REMARKS
LAS VEGAS, NV  MOCLDY    52  35  52 S5        29.74F
ELY, NY        MOCLDY    16  14  92 CALM      29.70F
ELKO, NV       CLEAR     25  23  92 CALM      29.70S
POCATELLO, ID  PTCLDY    31  26  82 CALM      29.67F
BURLEY, ID     FLURRIES  34  31  88 SW9       29.68S WCI  27
FORT BRIDGER,  CLOUDY    28  28 100 W9        29.69F WCI  19
EVANSTON, WY   LGT SNOW  27  24  89 W5        29.67S FOG     WCI  22
ROCK SPRINGS,  LGT SNOW  20  18  92 SW6       29.65F FOG     WCI  12

$$




USA.gov is the U.S. government's official web portal to all federal, state and local government web resources and services.